Location: Unspecified
(0.0000°N, 0.0000°E)
Time: 19:06:26
(UTC+00:00)

Vanguard 1 Rocket - Pass Details

Date: 26 November 2019
Orbit: 650 x 4226 km, 34.3° (Epoch: 09 December)

Event Time Altitude Azimuth Distance (km) Brightness Sun altitude
Rises 08:02:21 0° 322° (NW) 3,572 10.0 31.3°
Reaches altitude 10° 08:04:31 10° 328° (NNW) 2,868 9.6 31.8°
Maximum altitude 08:11:18 49° 43° (NE) 1,914 9.7 33.3°
Drops below altitude 10° 08:24:12 10° 113° (ESE) 5,314 12.7 36.2°
Sets 08:29:49 0° 118° (ESE) 6,926 12.9 37.5°
